Etusivu
METAR-TAF:

METAR-TAF

Lentoasemat :

Nampa, Idaho, Yhdysvallat

Leveyspiiri: 43-34-53N, Pituuspiiri: 116-31-23W, korkeus merenpinnasta: 773 m

Tämänhetkinen sää

Tämä raportti tehtiin 27 minuuttia sitten, kello 10.35 UTC
Tuuli 9 kn lännestä
Lämpötila 16°C
Kosteus 48%
Ilmanpaine 1016 hPa
Näkyvyys: 16.1 km

METAR: KMAN 131035Z AUTO 28009KT 10SM 16/05 A2999 RMK A01

Aika: 05:02 (11:02 UTC)


TAF: puuttuu

Säähavainnot ja -ennusteet yli 4000 lentoasemalta (METAR- ja TAF-raportit).

Käytössä olevat sääasemat on merkitty karttaan keltaisilla ja punaisilla pisteillä.

Aseta hiiri pisteen päälle nähdäksesi sääaseman nimen.

Klikkaa sitten nähdäksesi säähavainnot ja -ennusteet.

Kartan vaihtaminen: klikkaa mustalla rastilla varustettuja vihreitä pisteitä, niin voit zoomata sisään; viivalla varustettua vihreää pistettä, niin voit zoomata ulos tai vihreitä nuolia, niin pääset viereisille kartoille.


METAR-TAF: